Flag for Germany Weather past 2 weeks in Potsdam, Brandenburg, Germany

Now
32 °F

Overcast.


Feels Like: 25 °F
Forecast: 26 / 32 °F
Wind: 7 mph from West

Location: Potsdam

Current Time: Feb 2, 2015 at 2:11:59 AM

Latest Report: Feb 2, 2015 at 2:00 AM


Visibility: 10 mi

Pressure: 29.29 "Hg

Humidity: 91%

Dew point: 29 °F

Location of PotsdamLocation

Historic Weather in Potsdam — Graph

°F

Potsdam temperature yesterday

Maximum temperature yesterday: 37 °F (at 2:00 PM)
Minimum temperature yesterday: 29 °F (at 9:00 PM)
Average temperature yesterday: 32 °F

Past Weeks' High & Low Weather Summary

 TemperatureHumidityPressure
High41 °F (Jan 28, 4:00 PM)100% (Jan 20, 8:00 PM)30.32 "Hg (Jan 20, 8:00 PM)
Low25 °F (Jan 19, 9:00 AM)68% (Jan 29, 1:00 PM)28.70 "Hg (Jan 30, 6:00 AM)
Average33 °F93%29.75 "Hg
* Reported Jan 18 1:00 AM — Feb 2 1:00 AM, Potsdam, Weather by CustomWeather, © 2014

Note: Actual official high and low records may vary slightly from our data, if they occured in-between our weather recording intervals... More about our weather records

Advertising

Potsdam weather history for previous 24 hours

 ConditionsComfort  
Time TempWeatherWind HumidityBarometerVisibility
1:00 AM
Feb 2
31 °FOvercast.6 mph91%29.29 "Hg12 mi
12:00 AM31 °FOvercast.5 mph92%29.29 "Hg14 mi
11:00 PM
Feb 1
31 °FPassing clouds.6 mph95%29.29 "Hg12 mi
10:00 PM30 °FPassing clouds.6 mph98%29.29 "Hg9 mi
9:00 PM29 °FPassing clouds.6 mph98%29.29 "Hg8 mi
8:00 PM30 °FPassing clouds.5 mph98%29.29 "Hg8 mi
7:00 PM30 °FPassing clouds.5 mph96%29.26 "Hg9 mi
6:00 PM31 °FPassing clouds.5 mph95%29.26 "Hg9 mi
5:00 PM33 °FPassing clouds.5 mph91%29.23 "Hg12 mi
4:00 PM35 °FScattered clouds.5 mph85%29.23 "Hg17 mi
3:00 PM36 °FPartly sunny.5 mph81%29.21 "Hg17 mi
2:00 PM37 °FOvercast.6 mph78%29.21 "Hg17 mi
1:00 PM37 °FPartly sunny.5 mph79%29.21 "Hg14 mi
12:00 PM35 °FPartly sunny.6 mph83%29.21 "Hg14 mi
11:00 AM33 °FScattered clouds.5 mph90%29.21 "Hg11 mi
10:00 AM32 °FOvercast.5 mph92%29.18 "Hg6 mi
9:00 AM32 °FOvercast.5 mph95%29.18 "Hg6 mi
8:00 AM32 °FOvercast.6 mph95%29.15 "Hg5 mi
7:00 AM32 °FLight snow. Overcast.6 mph95%29.12 "Hg6 mi
6:00 AM32 °FOvercast.6 mph95%29.12 "Hg7 mi
5:00 AM32 °FOvercast.6 mph96%29.09 "Hg8 mi
4:00 AM32 °FOvercast.6 mph95%29.09 "Hg9 mi
3:00 AM32 °FOvercast.6 mph96%29.09 "Hg9 mi
2:00 AM32 °FPassing clouds.7 mph96%29.09 "Hg6 mi
Weather by CustomWeather, © 2014

See weather overviewHow to use our weather pages